EW8660 Weather Reports


Display with metric or nautical units.
time (UTC)temp
F
wind
direction
speed
MPH
gust
MPH
rain 1hr
in
rain 24hr
in
rain mn
in
humidity
%
barometer
mb
20260831052753 64 320 2.0 5.0 0.00 0.00 0.00 66 1013.8
20260831052252 65 355 1.0 5.0 0.00 0.00 0.00 65 1013.9
20260831051753 65 330 1.0 3.0 0.00 0.00 0.00 64 1013.8
20260831051252 65 316 0.0 3.0 0.00 0.00 0.00 64 1013.9
20260831050752 65 340 0.0 3.0 0.00 0.00 0.00 63 1013.9
20260831050253 65 338 1.0 4.0 0.00 0.00 0.00 63 1014.0
20260831045753 65 25 2.0 6.0 0.00 0.00 0.00 62 1014.0
20260831045252 65 1 2.0 6.0 0.00 0.00 0.00 62 1014.0
20260831044752 65 0 1.0 3.0 0.00 0.00 0.00 62 1014.0
20260831044253 66 16 1.0 3.0 0.00 0.00 0.00 61 1014.1
20260831043751 66 11 2.0 4.0 0.00 0.00 0.00 61 1014.1
20260831043252 66 23 2.0 4.0 0.00 0.00 0.00 61 1014.2
20260831042750 66 19 2.0 5.0 0.00 0.00 0.00 60 1014.2
20260831042251 66 17 2.0 5.0 0.00 0.00 0.00 60 1014.1
20260831041755 67 32 2.0 6.0 0.00 0.00 0.00 59 1014.1
20260831041749 67 4 2.0 6.0 0.00 0.00 0.00 59 1014.1
20260831041407 67 349 2.0 6.0 0.00 0.00 0.00 58 1014.1
20260831040248 67 346 2.0 6.0 0.00 0.00 0.00 58 1014.1
20260831035748 67 304 2.0 5.0 0.00 0.00 0.00 58 1014.1
20260831035248 68 352 1.0 4.0 0.00 0.00 0.00 57 1014.1
20260831034750 68 352 1.0 4.0 0.00 0.00 0.00 57 1014.1
20260831034248 68 32 2.0 5.0 0.00 0.00 0.00 56 1014.0
20260831033754 69 46 3.0 11.0 0.00 0.00 0.00 55 1014.0
20260831033749 69 28 3.0 11.0 0.00 0.00 0.00 55 1014.0
20260831032749 69 68 3.0 8.0 0.00 0.00 0.00 55 1013.9
20260831032248 69 352 4.0 8.0 0.00 0.00 0.00 54 1014.0
20260831031745 69 40 4.0 8.0 0.00 0.00 0.00 54 1014.0
20260831031248 70 51 4.0 10.0 0.00 0.00 0.00 54 1014.0
20260831030746 70 40 3.0 10.0 0.00 0.00 0.00 54 1014.0
20260831030247 70 4 4.0 8.0 0.00 0.00 0.00 54 1014.0
20260831025745 70 26 3.0 9.0 0.00 0.00 0.00 54 1014.0
20260831025246 71 53 3.0 9.0 0.00 0.00 0.00 53 1014.0
20260831024747 71 20 4.0 8.0 0.00 0.00 0.00 53 1014.0
20260831024247 71 30 4.0 8.0 0.00 0.00 0.00 53 1014.0
20260831023746 71 56 4.0 10.0 0.00 0.00 0.00 53 1014.0
20260831023247 72 38 5.0 10.0 0.00 0.00 0.00 52 1014.1
20260831022744 72 30 5.0 12.0 0.00 0.00 0.00 52 1014.0
20260831022244 72 51 5.0 12.0 0.00 0.00 0.00 51 1014.0
20260831021744 73 39 5.0 12.0 0.00 0.00 0.00 51 1014.0
20260831021250 74 30 4.0 12.0 0.00 0.00 0.00 50 1014.0
20260831021244 73 329 4.0 12.0 0.00 0.00 0.00 50 1014.0
20260831020243 74 351 3.0 8.0 0.00 0.00 0.00 49 1014.0
20260831015746 74 8 4.0 11.0 0.00 0.00 0.00 49 1014.1
20260831015250 74 61 4.0 11.0 0.00 0.00 0.00 49 1014.1
20260831015246 74 2 4.0 11.0 0.00 0.00 0.00 49 1014.0
20260831014245 74 336 5.0 11.0 0.00 0.00 0.00 49 1014.1
20260831013745 74 63 5.0 11.0 0.00 0.00 0.00 49 1014.1
20260831013244 74 35 5.0 11.0 0.00 0.00 0.00 48 1014.2
20260831012744 74 333 5.0 11.0 0.00 0.00 0.00 48 1014.2
20260831012244 74 13 5.0 11.0 0.00 0.00 0.00 48 1014.3
20260831011745 74 35 5.0 11.0 0.00 0.00 0.00 48 1014.3
20260831011243 75 54 5.0 12.0 0.00 0.00 0.00 47 1014.3
20260831010744 75 37 5.0 12.0 0.00 0.00 0.00 47 1014.4
20260831010244 75 10 5.0 14.0 0.00 0.00 0.00 47 1014.4
20260831005741 75 17 6.0 14.0 0.00 0.00 0.00 47 1014.5
20260831005249 75 64 6.0 13.0 0.00 0.00 0.00 47 1014.6
20260831005243 75 49 6.0 13.0 0.00 0.00 0.00 48 1014.6
20260831004242 75 44 6.0 13.0 0.00 0.00 0.00 47 1014.7
20260831003742 75 38 6.0 12.0 0.00 0.00 0.00 47 1014.8
20260831003243 75 10 6.0 12.0 0.00 0.00 0.00 47 1014.9
20260831002741 75 38 5.0 14.0 0.00 0.00 0.00 46 1014.9
20260831002242 75 20 5.0 14.0 0.00 0.00 0.00 46 1014.8
20260831001747 75 336 5.0 14.0 0.00 0.00 0.00 47 1014.9
20260831001743 75 55 5.0 11.0 0.00 0.00 0.00 47 1014.8
20260831000747 75 351 5.0 13.0 0.00 0.00 0.00 46 1015.1
20260831000741 75 8 6.0 14.0 0.00 0.00 0.00 46 1015.0
20260830235740 75 44 4.0 8.0 0.00 0.00 0.00 46 1015.1
20260830235240 75 62 4.0 10.0 0.00 0.00 0.00 46 1015.1
20260830234741 74 9 5.0 10.0 0.00 0.00 0.00 46 1015.3
20260830234245 75 18 5.0 11.0 0.00 0.00 0.00 46 1015.5
20260830234240 74 16 5.0 11.0 0.00 0.00 0.00 46 1015.3
20260830233241 74 319 5.0 11.0 0.00 0.00 0.00 47 1015.5
20260830232741 74 347 4.0 12.0 0.00 0.00 0.00 46 1015.5
20260830232240 74 291 4.0 13.0 0.00 0.00 0.00 48 1015.5
20260830231741 75 2 4.0 13.0 0.00 0.00 0.00 46 1015.6
20260830231240 74 37 4.0 10.0 0.00 0.00 0.00 46 1015.6
20260830230740 74 33 5.0 11.0 0.00 0.00 0.00 46 1015.7
20260830230245 74 13 5.0 10.0 0.00 0.00 0.00 47 1015.8
20260830230241 74 273 5.0 11.0 0.00 0.00 0.00 45 1015.7
20260830225245 74 32 5.0 11.0 0.00 0.00 0.00 46 1016.0
20260830225240 74 30 6.0 11.0 0.00 0.00 0.00 45 1015.8
20260830224240 74 11 5.0 12.0 0.00 0.00 0.00 47 1016.1
20260830223739 73 358 5.0 12.0 0.00 0.00 0.00 45 1016.2
20260830223240 73 60 5.0 11.0 0.00 0.00 0.00 46 1016.3
20260830222739 74 56 5.0 11.0 0.00 0.00 0.00 46 1016.4
20260830222240 73 343 4.0 10.0 0.00 0.00 0.00 46 1016.5
20260830221740 73 11 4.0 10.0 0.00 0.00 0.00 46 1016.6
20260830221241 73 27 5.0 12.0 0.00 0.00 0.00 45 1016.7
20260830220741 73 344 5.0 12.0 0.00 0.00 0.00 46 1016.7
20260830220240 73 356 5.0 8.0 0.00 0.00 0.00 47 1016.8
20260830215740 72 19 5.0 10.0 0.00 0.00 0.00 47 1016.9
20260830215240 72 43 4.0 10.0 0.00 0.00 0.00 46 1017.0
20260830214741 72 301 5.0 13.0 0.00 0.00 0.00 47 1017.1
20260830214240 72 28 5.0 13.0 0.00 0.00 0.00 47 1017.1
20260830213745 72 8 3.0 9.0 0.00 0.00 0.00 47 1017.3
20260830213741 72 17 4.0 11.0 0.00 0.00 0.00 47 1017.2
20260830212741 71 347 4.0 11.0 0.00 0.00 0.00 48 1017.3
20260830212246 71 345 4.0 10.0 0.00 0.00 0.00 48 1017.4
20260830212240 71 342 5.0 11.0 0.00 0.00 0.00 47 1017.4
20260830211245 71 27 5.0 11.0 0.00 0.00 0.00 48 1017.4
20260830211240 71 32 4.0 10.0 0.00 0.00 0.00 48 1017.4
20260830210241 71 62 6.0 11.0 0.00 0.00 0.00 49 1017.6
20260830205740 71 345 5.0 11.0 0.00 0.00 0.00 47 1017.7
20260830205248 70 315 5.0 12.0 0.00 0.00 0.00 48 1017.7
20260830205241 71 335 5.0 11.0 0.00 0.00 0.00 49 1017.6
20260830204740 71 13 5.0 12.0 0.00 0.00 0.00 48 1017.7
20260830203741 70 11 4.0 10.0 0.00 0.00 0.00 48 1017.8
20260830203239 71 46 3.0 10.0 0.00 0.00 0.00 48 1017.9
20260830202740 70 15 4.0 10.0 0.00 0.00 0.00 50 1018.0
20260830202240 69 81 4.0 9.0 0.00 0.00 0.00 50 1018.0
20260830201748 69 1 5.0 12.0 0.00 0.00 0.00 51 1018.3
20260830201739 69 46 3.0 11.0 0.00 0.00 0.00 50 1018.1
20260830201241 69 339 5.0 12.0 0.00 0.00 0.00 49 1018.2
20260830200240 68 64 5.0 12.0 0.00 0.00 0.00 50 1018.3
20260830195739 69 347 4.0 12.0 0.00 0.00 0.00 50 1018.4
20260830195242 68 20 4.0 8.0 0.00 0.00 0.00 54 1018.4
20260830194741 68 62 5.0 11.0 0.00 0.00 0.00 54 1018.5
20260830194244 68 324 4.0 9.0 0.00 0.00 0.00 55 1018.5
20260830194239 68 60 4.0 11.0 0.00 0.00 0.00 55 1018.5
20260830193859 68 330 4.0 9.0 0.00 0.00 0.00 53 1018.7
20260830192737 68 309 4.0 9.0 0.00 0.00 0.00 55 1018.7
20260830192239 67 334 3.0 8.0 0.00 0.00 0.00 58 1018.7
20260830191735 67 58 4.0 8.0 0.00 0.00 0.00 57 1018.8
20260830191236 67 319 5.0 12.0 0.00 0.00 0.00 59 1018.9
20260830190736 66 6 4.0 12.0 0.00 0.00 0.00 58 1018.9
20260830190236 67 356 4.0 8.0 0.00 0.00 0.00 57 1019.1
20260830185736 67 63 4.0 8.0 0.00 0.00 0.00 57 1019.0
20260830185233 66 276 3.0 8.0 0.00 0.00 0.00 57 1019.1
20260830184731 66 359 3.0 9.0 0.00 0.00 0.00 59 1019.1
20260830184233 66 4 4.0 9.0 0.00 0.00 0.00 59 1019.2
20260830183732 66 39 3.0 8.0 0.00 0.00 0.00 58 1019.2
20260830183231 65 39 3.0 9.0 0.00 0.00 0.00 59 1019.2
20260830182735 64 347 3.0 8.0 0.00 0.00 0.00 62 1019.3
20260830182729 65 326 4.0 9.0 0.00 0.00 0.00 59 1019.2
20260830182229 65 359 3.0 8.0 0.00 0.00 0.00 60 1019.3
20260830181227 64 31 2.0 8.0 0.00 0.00 0.00 63 1019.4
20260830180729 64 337 2.0 5.0 0.00 0.00 0.00 64 1019.4
20260830180228 64 346 2.0 7.0 0.00 0.00 0.00 64 1019.4
20260830175728 64 4 1.0 7.0 0.00 0.00 0.00 66 1019.3
20260830175228 63 39 2.0 8.0 0.00 0.00 0.00 67 1019.4
20260830174728 63 356 2.0 8.0 0.00 0.00 0.00 67 1019.4
20260830174229 63 321 2.0 6.0 0.00 0.00 0.00 68 1019.4
20260830173733 62 33 2.0 6.0 0.00 0.00 0.00 69 1019.5
20260830173728 63 10 3.0 6.0 0.00 0.00 0.00 71 1019.5
20260830172726 62 14 1.0 6.0 0.00 0.00 0.00 71 1019.5
20260830172226 62 20 2.0 6.0 0.00 0.00 0.00 72 1019.5
20260830171725 62 14 2.0 6.0 0.00 0.00 0.00 72 1019.6
20260830171225 61 72 2.0 6.0 0.00 0.00 0.00 72 1019.5
20260830170730 60 316 2.0 6.0 0.00 0.00 0.00 74 1019.6
20260830170726 61 51 2.0 6.0 0.00 0.00 0.00 73 1019.5
20260830165725 60 340 2.0 6.0 0.00 0.00 0.00 75 1019.5
20260830165225 60 56 1.0 5.0 0.00 0.00 0.00 74 1019.6
20260830164726 60 74 1.0 4.0 0.00 0.00 0.00 75 1019.6
20260830164225 60 340 2.0 5.0 0.00 0.00 0.00 76 1019.6
20260830163723 59 314 1.0 5.0 0.00 0.00 0.00 77 1019.6
20260830163230 59 359 1.0 6.0 0.00 0.00 0.00 76 1019.8
20260830163224 59 334 1.0 6.0 0.00 0.00 0.00 77 1019.7
20260830162224 59 356 1.0 4.0 0.00 0.00 0.00 78 1019.8
20260830161725 58 312 1.0 4.0 0.00 0.00 0.00 78 1019.8
20260830161223 58 336 1.0 5.0 0.00 0.00 0.00 78 1019.8
20260830160722 57 328 2.0 6.0 0.00 0.00 0.00 79 1019.8
20260830160224 58 8 1.0 6.0 0.00 0.00 0.00 78 1019.8
20260830155723 57 328 1.0 3.0 0.00 0.00 0.00 79 1019.8
20260830155223 57 316 1.0 3.0 0.00 0.00 0.00 79 1019.8
20260830154721 57 326 1.0 3.0 0.00 0.00 0.00 79 1019.8
20260830154221 57 328 0.0 2.0 0.00 0.00 0.00 79 1019.8
20260830153720 57 4 0.0 1.0 0.00 0.00 0.00 80 1019.8
20260830153222 56 359 0.0 1.0 0.00 0.00 0.00 81 1019.9
20260830152721 56 302 0.0 1.0 0.00 0.00 0.00 82 1019.9
20260830152223 55 342 0.0 1.0 0.00 0.00 0.00 83 1019.9
20260830151720 55 357 0.0 1.0 0.00 0.00 0.00 84 1019.9
20260830151219 54 279 0.0 0.0 0.00 0.00 0.00 85 1019.9
20260830150720 53 305 0.0 1.0 0.00 0.00 0.00 86 1020.1
20260830150220 53 356 0.0 1.0 0.00 0.00 0.00 87 1020.1
20260830145718 52 345 0.0 2.0 0.00 0.00 0.00 87 1020.1
20260830145217 52 1 0.0 2.0 0.00 0.00 0.00 89 1020.1
20260830144718 51 303 0.0 0.0 0.00 0.00 0.00 90 1020.0
20260830144217 51 338 0.0 0.0 0.00 0.00 0.00 91 1020.1
20260830143717 51 358 0.0 0.0 0.00 0.00 0.00 92 1020.1
20260830143216 50 358 0.0 0.0 0.00 0.00 0.00 93 1020.0
20260830142720 49 38 0.0 0.0 0.00 0.00 0.00 93 1020.0
20260830142716 50 38 0.0 0.0 0.00 0.00 0.00 93 1020.1
20260830142333 49 38 0.0 0.0 0.00 0.00 0.00 93 1020.0
20260830141217 48 38 0.0 0.0 0.00 0.00 0.00 93 1020.0
20260830140712 48 38 0.0 0.0 0.00 0.00 0.00 93 1020.0
20260830140213 48 38 0.0 0.0 0.00 0.00 0.00 93 1020.0
20260830135712 47 38 0.0 0.0 0.00 0.00 0.00 93 1020.0
20260830135219 47 38 0.0 0.0 0.00 0.00 0.00 93 1020.0
20260830135214 47 38 0.0 0.0 0.00 0.00 0.00 93 1019.9
20260830134215 47 38 0.0 0.0 0.00 0.00 0.00 93 1020.0
20260830133712 47 38 0.0 0.0 0.00 0.00 0.00 92 1019.9
20260830133213 47 38 0.0 0.0 0.00 0.00 0.00 92 1019.8
20260830132713 47 38 0.0 0.0 0.00 0.00 0.00 93 1019.8
20260830132210 48 38 0.0 0.0 0.00 0.00 0.00 92 1019.8
20260830131711 48 38 0.0 0.0 0.00 0.00 0.00 92 1019.7
20260830131210 48 38 0.0 0.0 0.00 0.00 0.00 92 1019.7
20260830130711 48 38 0.0 0.0 0.00 0.00 0.00 93 1019.7
20260830130209 48 38 0.0 0.0 0.00 0.00 0.00 93 1019.7
20260830125708 47 38 0.0 0.0 0.00 0.00 0.00 92 1019.7
20260830125209 48 38 0.0 0.0 0.00 0.00 0.00 92 1019.6
20260830124715 48 38 0.0 0.0 0.00 0.00 0.00 92 1019.4
20260830124710 48 38 0.0 0.0 0.00 0.00 0.00 91 1019.6
20260830124209 48 38 0.0 0.0 0.00 0.00 0.00 92 1019.5
20260830123209 48 38 0.0 0.0 0.00 0.00 0.00 91 1019.5
20260830122710 49 38 0.0 0.0 0.00 0.00 0.00 91 1019.3
20260830122209 49 38 0.0 0.0 0.00 0.00 0.00 92 1019.4
20260830121710 49 38 0.0 0.0 0.00 0.00 0.00 92 1019.4
20260830121209 49 50 0.0 0.0 0.00 0.00 0.00 92 1019.5
20260830120710 48 51 0.0 0.0 0.00 0.00 0.00 92 1019.5
20260830120208 48 51 0.0 0.0 0.00 0.00 0.00 92 1019.4
20260830115708 48 51 0.0 0.0 0.00 0.00 0.00 91 1019.4
20260830115210 48 50 0.0 0.0 0.00 0.00 0.00 91 1019.4
20260830114709 49 51 0.0 0.0 0.00 0.00 0.00 91 1019.5
20260830114213 49 51 0.0 0.0 0.00 0.00 0.00 92 1019.4
20260830114209 49 51 0.0 0.0 0.00 0.00 0.00 91 1019.4
20260830113208 49 50 0.0 0.0 0.00 0.00 0.00 92 1019.4
20260830112708 49 50 0.0 0.0 0.00 0.00 0.00 91 1019.4
20260830112209 49 51 0.0 0.0 0.00 0.00 0.00 91 1019.3
20260830111710 49 51 0.0 0.0 0.00 0.00 0.00 91 1019.3
20260830111208 49 50 0.0 0.0 0.00 0.00 0.00 91 1019.3
20260830110708 49 51 0.0 0.0 0.00 0.00 0.00 91 1019.3
20260830110209 49 51 0.0 0.0 0.00 0.00 0.00 91 1019.4
20260830105709 49 51 0.0 0.0 0.00 0.00 0.00 90 1019.4
20260830105209 50 51 0.0 0.0 0.00 0.00 0.00 91 1019.4
20260830104708 49 51 0.0 0.0 0.00 0.00 0.00 91 1019.4
20260830104208 49 345 0.0 0.0 0.00 0.00 0.00 91 1019.4
20260830103710 49 345 0.0 0.0 0.00 0.00 0.00 91 1019.5
20260830103208 49 345 0.0 0.0 0.00 0.00 0.00 91 1019.3
20260830102706 49 345 0.0 0.0 0.00 0.00 0.00 91 1019.4
20260830102204 49 345 0.0 0.0 0.00 0.00 0.00 89 1019.4
20260830101705 49 345 0.0 0.0 0.00 0.00 0.00 89 1019.4
20260830101211 50 345 0.0 0.0 0.00 0.00 0.00 89 1019.4
20260830101205 49 345 0.0 0.0 0.00 0.00 0.00 90 1019.4
20260830100205 50 345 0.0 0.0 0.00 0.00 0.00 89 1019.4
20260830095705 50 345 0.0 0.0 0.00 0.00 0.00 89 1019.3
20260830095204 50 345 0.0 0.0 0.00 0.00 0.00 90 1019.4
20260830094710 51 345 0.0 0.0 0.00 0.00 0.00 89 1019.3
20260830094705 50 345 0.0 0.0 0.00 0.00 0.00 89 1019.4
20260830093704 50 345 0.0 0.0 0.00 0.00 0.00 88 1019.3
20260830093202 51 345 0.0 0.0 0.00 0.00 0.00 88 1019.3
20260830092703 51 345 0.0 0.0 0.00 0.00 0.00 88 1019.4
20260830092202 51 345 0.0 0.0 0.00 0.00 0.00 88 1019.3
20260830091704 51 345 0.0 0.0 0.00 0.00 0.00 87 1019.4
20260830091202 51 345 0.0 0.0 0.00 0.00 0.00 87 1019.4
20260830090700 51 345 0.0 0.0 0.00 0.00 0.00 86 1019.4
20260830090200 52 345 0.0 0.0 0.00 0.00 0.00 86 1019.4
20260830085659 52 345 0.0 0.0 0.00 0.00 0.00 87 1019.3
20260830085159 51 345 0.0 0.0 0.00 0.00 0.00 87 1019.3
20260830084659 52 345 0.0 0.0 0.00 0.00 0.00 87 1019.4
20260830084159 52 345 0.0 0.0 0.00 0.00 0.00 87 1019.4
20260830083704 51 345 0.0 0.0 0.00 0.00 0.00 87 1019.4
20260830083700 52 345 0.0 0.0 0.00 0.00 0.00 87 1019.4
20260830082700 52 345 0.0 0.0 0.00 0.00 0.00 86 1019.4
20260830082201 52 345 0.0 0.0 0.00 0.00 0.00 86 1019.4
20260830082156 52 345 0.0 0.0 0.00 0.00 0.00 86 1019.4
20260830081157 52 345 0.0 0.0 0.00 0.00 0.00 86 1019.4
20260830080655 52 345 0.0 0.0 0.00 0.00 0.00 84 1019.3
20260830080156 53 345 0.0 0.0 0.00 0.00 0.00 85 1019.4
20260830075655 53 345 0.0 0.0 0.00 0.00 0.00 84 1019.4
20260830075154 53 345 0.0 0.0 0.00 0.00 0.00 84 1019.3
20260830074654 53 345 0.0 0.0 0.00 0.00 0.00 83 1019.4
20260830074156 54 345 0.0 0.0 0.00 0.00 0.00 83 1019.4
20260830073654 54 345 0.0 0.0 0.00 0.00 0.00 83 1019.3
20260830073154 54 345 0.0 0.0 0.00 0.00 0.00 82 1019.3
20260830072656 54 345 0.0 0.0 0.00 0.00 0.00 82 1019.3
20260830072153 55 345 0.0 0.0 0.00 0.00 0.00 81 1019.3
20260830071652 55 345 0.0 0.0 0.00 0.00 0.00 81 1019.3
20260830071152 56 345 0.0 0.0 0.00 0.00 0.00 79 1019.2
20260830070659 56 345 0.0 0.0 0.00 0.00 0.00 79 1019.2
20260830070654 56 345 0.0 0.0 0.00 0.00 0.00 80 1019.2
20260830065652 56 345 0.0 0.0 0.00 0.00 0.00 79 1019.3
20260830065154 57 345 0.0 0.0 0.00 0.00 0.00 78 1019.2
20260830064652 57 345 0.0 0.0 0.00 0.00 0.00 78 1019.3
20260830064151 57 345 0.0 1.0 0.00 0.00 0.00 77 1019.3
20260830063653 57 345 0.0 1.0 0.00 0.00 0.00 77 1019.2
20260830063156 58 331 0.0 2.0 0.00 0.00 0.00 76 1019.1
20260830063151 58 345 0.0 1.0 0.00 0.00 0.00 77 1019.2
20260830062650 58 339 0.0 1.0 0.00 0.00 0.00 77 1019.2
20260830061656 58 304 0.0 2.0 0.00 0.00 0.00 76 1019.1
20260830061650 58 294 0.0 2.0 0.00 0.00 0.00 76 1019.1
20260830060650 58 295 0.0 4.0 0.00 0.00 0.00 76 1019.2
20260830060149 58 314 1.0 4.0 0.00 0.00 0.00 75 1019.1
20260830055648 59 302 1.0 3.0 0.00 0.00 0.00 75 1019.1
20260830055149 59 259 1.0 3.0 0.00 0.00 0.00 75 1019.1
20260830054654 59 249 0.0 2.0 0.00 0.00 0.00 74 1019.1
20260830054648 59 262 1.0 3.0 0.00 0.00 0.00 75 1019.1
20260830053648 59 217 1.0 4.0 0.00 0.00 0.00 74 1019.1